Flag for U.S.A. Weather past 2 weeks in Antioch, California, U.S.A.

Now
61 °F

Passing clouds.


Feels Like: 61 °F
Forecast: 56 / 71 °F
Wind: 7 mph from Southwest

Location: Buchanan Field

Current Time: Oct 20, 2014 at 4:24:22 AM

Latest Report: Oct 20, 2014 at 3:53 AM


Visibility: 10 mi

Pressure: 29.86 "Hg

Humidity: 81%

Dew point: 55 °F

Location of AntiochLocation

Historic Weather in Antioch — Graph

°F

Antioch temperature yesterday

Maximum temperature yesterday: 79 °F (at 2:53 PM)
Minimum temperature yesterday: 56 °F (at 4:53 AM)
Average temperature yesterday: 65 °F

Past Weeks' High & Low Weather Summary

 TemperatureHumidityPressure
High95 °F (Oct 5, 4:53 PM)93% (Oct 7, 4:53 AM)30.04 "Hg (Oct 7, 4:53 AM)
Low52 °F (Oct 16, 6:53 AM)6% (Oct 12, 2:53 PM)29.76 "Hg (Oct 8, 5:53 PM)
Average67 °F59%29.89 "Hg
* Reported Oct 5 2:53 AM — Oct 20 2:53 AM, Antioch, Weather by CustomWeather, © 2014

Note: Actual official high and low records may vary slightly from our data, if they occured in-between our weather recording intervals... More about our weather records

Advertising

Antioch weather history for previous 24 hours

 ConditionsComfort  
Time TempWeatherWind HumidityBarometerVisibility
2:53 AM
Oct 20
63 °FOvercast.7 mph78%29.87 "Hg10 mi
1:53 AM63 °FOvercast.12 mph78%29.88 "Hg10 mi
12:53 AM63 °FOvercast.7 mph81%29.86 "Hg10 mi
11:53 PM
Oct 19
63 °FOvercast.10 mph81%29.87 "Hg10 mi
10:53 PM62 °FClear.8 mph83%29.86 "Hg10 mi
9:53 PM62 °FClear.6 mph80%29.85 "Hg10 mi
7:53 PM66 °FClear.9 mph70%29.82 "Hg10 mi
6:53 PM69 °FSunny.7 mph61%29.81 "Hg10 mi
5:53 PM72 °FSunny.10 mph55%29.80 "Hg10 mi
4:53 PM75 °FSunny.10 mph48%29.80 "Hg10 mi
3:53 PM77 °FSunny.15 mph47%29.80 "Hg10 mi
2:53 PM79 °FSunny.12 mph44%29.80 "Hg10 mi
1:53 PM76 °FSunny.10 mph54%29.83 "Hg10 mi
12:53 PM73 °FSunny.8 mph62%29.85 "Hg10 mi
11:53 AM70 °FSunny.5 mph68%29.87 "Hg10 mi
10:53 AM67 °FSunny.No wind76%29.88 "Hg10 mi
9:53 AM64 °FSunny.No wind78%29.89 "Hg10 mi
8:53 AM61 °FSunny.No wind83%29.88 "Hg10 mi
7:53 AM58 °FFog.No wind93%29.87 "Hg5 mi
6:53 AM56 °FClear.No wind90%29.85 "Hg10 mi
5:53 AM56 °FClear.5 mph90%29.84 "Hg10 mi
4:53 AM56 °FClear.5 mph93%29.84 "Hg10 mi
Weather by CustomWeather, © 2014

See weather overviewHow to use our weather pages